SKYSAT-C7 (42991 NORAD) Tracking and Keplerian Element Data

This shows tracking and keplerian element data for the satellite.

Feedback or suggestion? Click here.




ElementValue
Catalog42991
NameSKYSAT-C7
Epoch Orbit3889
Epoch Day195.89192539
Epoch Year2018
RAAN309.5943
Inclination97.4074
Eccentricity0.0007297
Argument of Perigee46.5634
Mean Anonmoly313.6208
Mean Motion15.21351591
Decay Rate4.08E-06
L11 42991U 17068E 18195.89192539 .00000408 00000-0 21262-4 0 9996
L22 42991 97.4074 309.5943 0007297 46.5634 313.6208 15.21351591 38898

Live tracking and technical data element details for SKYSAT-C7 (NORAD 42991). SKYSAT-C7 can be tracked NOW for your location showing map with azimuth and elevation plus other details from your city location.

Track the satellite on the map from your city or location and see movement details for azimuth, elevation, latitude, longitude, range, height, and movement on the map or in text.







IsCatalogInMostPopularTable: catalog: 42991, numindb: 89
Update: records affected: 1



GetName: 42991 SKYSAT-C7

Hit Count: updated at: Sun, 15 Jul 2018 23:08:23 GMT